Location: Boo
(59.3083°N, 18.2784°E)
Time: 13:24:43
(UTC+01:00)

Envisat - Visible Passes

Search period start: 01 December 2022 00:00
Search period end: 11 December 2022 00:00
Orbit: 763 x 765 km, 98.2° (Epoch: 30 November)

Date Brightness Start Highest point End Pass type
(mag) Time Alt. Az. Time Alt. Az. Time Alt. Az.
01 Dec 4.8 03:13:44 10° NNE 03:18:07 28° E 03:18:16 28° E visible
01 Dec 2.9 04:52:30 10° NNE 04:57:34 68° WNW 04:58:26 57° WSW visible
01 Dec 4.3 06:32:13 10° N 06:35:51 20° NW 06:38:37 13° W visible
01 Dec 5.6 16:18:10 10° SW 16:22:05 22° W 16:26:01 10° NW visible
02 Dec 5.5 02:37:25 10° NE 02:40:36 16° E 02:40:39 16° E visible
02 Dec 3.1 04:15:27 10° NNE 04:20:33 71° ESE 04:20:49 70° SE visible
02 Dec 3.8 05:54:52 10° N 05:59:16 30° NW 06:01:00 24° W visible
02 Dec 4.7 15:39:58 10° SSW 15:44:41 37° W 15:49:26 10° NNW visible
03 Dec 4.1 03:38:34 10° NNE 03:43:13 41° E 03:43:13 41° E visible
03 Dec 3.2 05:17:38 10° N 05:22:32 48° WNW 05:23:23 43° W visible
03 Dec 4.6 06:57:38 10° N 07:00:31 15° NW 07:03:23 10° WNW visible
03 Dec 5.8 16:44:37 10° WSW 16:47:30 15° W 16:50:24 10° NW visible
04 Dec 5.1 03:01:55 10° NE 03:05:38 24° E 03:05:38 24° E visible
04 Dec 2.8 04:40:31 10° NNE 04:45:38 80° WNW 04:45:48 79° W visible
04 Dec 4.1 06:20:09 10° N 06:24:02 23° NW 06:25:58 18° W visible
04 Dec 5.3 16:05:45 10° SSW 16:09:59 26° W 16:14:14 10° NNW visible
05 Dec 5.8 02:25:54 10° NE 02:28:02 14° ENE 02:28:02 14° ENE visible
05 Dec 3.5 04:03:31 10° NNE 04:08:12 58° E 04:08:12 58° E visible
05 Dec 3.6 05:42:49 10° N 05:47:24 34° WNW 05:48:23 32° W visible
05 Dec 4.8 07:23:16 10° NNW 07:25:08 12° NW 07:27:00 10° NW visible
06 Dec 4.5 03:26:41 10° NNE 03:30:37 33° ENE 03:30:37 33° ENE visible
06 Dec 3.0 05:05:38 10° NNE 05:10:38 56° WNW 05:10:48 56° WNW visible
06 Dec 4.4 06:45:30 10° N 06:48:44 17° NW 06:50:58 13° WNW visible
06 Dec 5.7 16:31:56 10° SW 16:35:22 18° W 16:38:49 10° NW visible
07 Dec 5.4 02:50:10 10° NE 02:53:03 19° ENE 02:53:03 19° ENE visible
07 Dec 3.0 04:28:33 10° NNE 04:33:13 75° NNE 04:33:13 75° NNE visible
07 Dec 4.0 06:08:05 10° N 06:12:12 26° NW 06:13:24 23° WNW visible
07 Dec 5.0 15:53:25 10° SSW 15:57:54 31° W 16:02:24 10° NNW visible
08 Dec 6.0 02:14:41 10° ENE 02:15:29 11° ENE 02:15:29 11° ENE visible
08 Dec 4.0 03:51:35 10° NNE 03:55:39 45° ENE 03:55:39 45° ENE visible
08 Dec 3.4 05:30:48 10° N 05:35:32 40° WNW 05:35:49 39° WNW visible
08 Dec 4.7 07:10:59 10° N 07:13:23 13° NW 07:15:45 10° WNW visible
08 Dec 6.0 16:58:52 10° WSW 17:00:50 12° WNW 17:02:48 10° NW visible
09 Dec 4.9 03:14:50 10° NNE 03:18:06 26° ENE 03:18:06 26° ENE visible
09 Dec 3.0 04:53:38 10° NNE 04:58:16 63° NW 04:58:16 63° NW visible
09 Dec 4.3 06:33:23 10° N 06:36:57 20° NW 06:38:27 17° WNW visible
09 Dec 5.6 16:19:23 10° SW 16:23:14 21° W 16:27:06 10° NW visible
10 Dec 5.6 02:38:29 10° NE 02:40:33 16° ENE 02:40:33 16° ENE visible
10 Dec 3.4 04:16:34 10° NNE 04:20:43 57° NE 04:20:43 57° NE visible
10 Dec 3.8 05:56:01 10° N 06:00:22 29° NW 06:00:53 29° WNW visible
10 Dec 4.8 07:36:59 10° NNW 07:37:57 11° NNW 07:38:56 10° NW visible
10 Dec 4.7 15:41:09 10° SSW 15:45:50 36° W 15:50:32 10° NNW visible
